Terminal Aerodrome Forecast
Issued by NWS Honolulu, HI

Home | Current Version | Previous Version | Text Only | Print | Product List | Glossary On
Versions: 1 2 3 4 5 6 7 8 9 10 11 12 13 14 15 16 17 18 19 20 21 22 23 24 25 26 27 28 29 30 31 32 33 34 35 36 37 38 39 40 41 42 43 44 45 46
000
FTPA31 PHFO 222300
TAFHNL
TAF
PHNL 222332Z 2300/2406 05016G22KT P6SM SCT030 BKN060
     FM230500 05009KT P6SM SCT025 BKN060
     FM232000 06014G20KT P6SM FEW030 SCT060
     FM240500 05007KT P6SM FEW025 SCT060=

USA.gov is the U.S. government's official web portal to all federal, state and local government web resources and services.